"America/Chicago Time","Lifetime Energy (kWh)","Power (W)","AC Volts RMS (V) ","AC Amps RMS (mA)","Grid Frequency (Hz)","Inverter Temperature (C)"
"08/06/12 09:54:27","159.4774","127.1","215.51","599","60.0","32"
"08/06/12 09:59:27","159.4874","128.9","215.76","602","60.0","32"
"08/06/12 10:04:28","159.4975","130.6","215.01","615","60.03","33"
"08/06/12 10:09:27","159.5078","132.7","215.62","626","60.03","33"
"08/06/12 10:14:26","159.5183","135.7","215.26","638","60.0","33"
"08/06/12 10:19:28","159.5288","136.5","216.03","634","60.03","34"
"08/06/12 10:24:28","159.5395","138.3","215.08","649","59.96","34"
"08/06/12 10:29:27","159.5504","140.8","215.21","658","60.0","34"
"08/06/12 10:34:28","159.5616","142.7","216.21","664","60.0","35"
"08/06/12 10:39:28","159.5727","144.5","216.32","668","60.0","35"
"08/06/12 10:44:27","159.584","145.9","215.69","686","60.03","35"
"08/06/12 10:49:27","159.5954","146.4","215.58","681","60.03","36"
"08/06/12 10:54:26","159.607","148.6","215.47","692","60.03","36"
"08/06/12 10:59:26","159.6186","150.9","217.33","698","60.03","36"
"08/06/12 11:04:27","159.6304","151.0","216.85","697","60.0","36"
"08/06/12 11:09:27","159.6423","152.8","217.18","706","60.0","36"
"08/06/12 11:14:28","159.6543","153.2","216.26","711","60.03","37"
"08/06/12 11:19:27","159.6662","155.4","217.45","712","60.0","37"
"08/06/12 11:24:28","159.6784","156.1","217.59","715","60.03","37"
"08/06/12 11:29:28","159.6905","155.0","217.38","713","60.03","37"
"08/06/12 11:34:27","159.7027","157.6","216.3","725","60.0","37"
"08/06/12 11:39:26","159.7149","158.8","215.86","736","60.03","37"
"08/06/12 11:44:27","159.7273","158.9","214.92","736","60.03","38"
"08/06/12 11:49:27","159.7398","159.9","215.53","741","60.03","38"
"08/06/12 11:54:27","159.7523","160.5","215.94","746","60.0","38"
"08/06/12 11:59:26","159.7645","161.4","215.57","749","60.03","38"
"08/06/12 12:04:27","159.7771","161.8","215.55","748","60.03","38"
"08/06/12 12:09:27","159.7899","163.9","215.68","756","60.0","38"
"08/06/12 12:14:27","159.8023","156.4","215.19","727","60.0","38"
"08/06/12 12:19:28","159.8145","156.1","216.7","717","60.0","38"
"08/06/12 12:24:26","159.827","164.9","217.39","753","60.03","38"
"08/06/12 12:29:26","159.8397","163.9","215.01","763","60.0","39"
"08/06/12 12:34:28","159.8526","165.9","216.39","762","60.0","38"
"08/06/12 12:39:26","159.8654","163.9","216.21","753","60.0","39"
"08/06/12 12:44:27","159.8777","106.1","214.59","510","60.0","38"
"08/06/12 12:49:28","159.8874","22.7","213.26","154","60.0","37"
"08/06/12 12:54:27","159.8989","165.3","216.61","767","60.03","38"
"08/06/12 12:59:26","159.9117","166.3","216.67","762","60.0","38"
"08/06/12 13:04:26","159.9247","168.5","216.27","772","60.03","38"
"08/06/12 13:09:27","159.9362","79.8","212.92","395","60.03","38"
"08/06/12 13:14:27","159.9481","168.1","216.25","773","60.03","38"
"08/06/12 13:19:27","159.9604","147.5","217.88","679","60.0","38"
"08/06/12 13:24:27","159.9724","157.6","217.41","726","60.0","38"
"08/06/12 13:29:27","159.9848","157.4","218.05","724","60.03","38"
"08/06/12 13:34:27","159.9964","127.6","216.19","599","60.03","38"
"08/06/12 13:39:26","160.0037","70.2","214.69","352","60.03","37"
"08/06/12 13:44:27","160.0132","174.4","217.05","796","59.96","37"
"08/06/12 13:49:28","160.0252","149.5","216.45","695","60.0","38"
"08/06/12 13:54:26","160.036","142.2","215.89","665","60.03","38"
"08/06/12 13:59:27","160.0468","136.8","216.14","639","60.03","38"
"08/06/12 14:04:26","160.057","142.6","216.77","661","60.03","38"
"08/06/12 14:09:28","160.0681","141.8","216.55","661","60.03","38"
"08/06/12 14:14:27","160.0791","132.2","216.35","620","60.0","39"
"08/06/12 14:19:27","160.0879","123.1","217.36","575","60.03","38"
"08/06/12 14:24:27","160.0968","123.6","217.02","583","60.03","38"
"08/06/12 14:29:28","160.1061","91.1","216.24","438","60.0","38"
"08/06/12 14:34:26","160.1161","109.3","216.57","519","60.0","38"
"08/06/12 14:39:27","160.1253","135.1","217.18","628","60.03","38"
"08/06/12 14:44:27","160.1346","78.1","216.03","386","60.03","38"
"08/06/12 14:49:27","160.1454","151.1","217.17","695","60.0","39"
"08/06/12 14:54:28","160.1569","146.2","216.41","680","60.03","39"
"08/06/12 14:59:27","160.1675","114.5","216.76","540","60.03","39"
"08/06/12 15:04:27","160.1777","113.5","216.6","541","60.0","39"
"08/06/12 15:09:28","160.1855","67.2","214.69","340","60.0","38"
"08/06/12 15:14:27","160.1915","47.9","213.61","360","60.0","37"
"08/06/12 15:19:28","160.1952","52.4","213.76","278","60.03","36"
"08/06/12 15:24:27","160.1992","64.0","213.76","333","60.03","35"
"08/06/12 15:29:27","160.2025","31.9","214.0","98","60.03","34"
"08/06/12 15:34:28","160.2049","15.7","213.96","48","60.03","33"
"08/06/12 15:39:26","160.2065","16.5","213.27","288","60.0","33"
"08/06/12 15:44:26","160.2079","21.0","214.55","15","60.03","32"
"08/06/12 15:49:27","160.2099","22.6","213.83","177","60.0","32"
"08/06/12 15:54:26","160.212","20.4","213.8","21","60.03","31"
"08/06/12 15:59:27","160.2137","17.5","214.05","177","60.07","31"
"08/06/12 16:04:28","160.2149","11.4","215.2","58","60.07","31"
"08/06/12 16:09:27","160.2161","27.1","214.84","25","60.03","30"
"08/06/12 16:14:26","160.2175","10.9","214.63","75","60.03","30"
"08/06/12 16:19:27","160.2183","8.1","213.78","0","60.0","30"
"08/06/12 16:24:28","160.219","10.9","213.37","13","60.0","29"
"08/06/12 16:29:28","160.2202","31.7","214.78","101","60.03","29"
"08/06/12 16:34:27","160.2221","33.5","215.01","83","60.03","29"
"08/06/12 16:39:27","160.2247","34.5","214.74","257","60.0","29"
"08/06/12 16:44:27","160.2276","25.8","213.78","244","60.0","29"
"08/06/12 16:49:27","160.2296","25.9","213.67","208","60.0","30"
"08/06/12 16:54:26","160.2315","16.6","213.33","85","60.03","30"
"08/06/12 16:59:28","160.2325","11.4","214.52","7","60.07","30"
"08/06/12 17:04:27","160.2332","0.0","213.88","0","60.03","29"
"08/06/12 17:09:28","160.2339","0.0","215.09","92","60.03","29"
"08/06/12 17:14:28","160.2342","0.0","214.04","0","60.03","29"
"08/06/12 17:19:28","160.2347","0.0","214.91","19","60.0","29"
"08/06/12 17:24:27","160.2353","12.5","214.2","45","60.03","28"
"08/06/12 17:29:28","160.2359","10.4","213.79","35","60.03","28"
"08/06/12 17:34:27","160.2363","13.6","212.77","36","60.03","28"
"08/06/12 17:39:28","160.2369","31.6","213.56","96","60.03","28"
"08/06/12 17:44:28","160.2389","14.4","214.88","16","60.03","28"
"08/06/12 17:49:28","160.2411","30.1","214.17","74","60.03","29"
"08/06/12 17:54:27","160.2437","25.0","214.65","81","60.03","29"
"08/06/12 17:59:27","160.2467","23.4","214.04","46","60.03","30"
"08/06/12 18:04:27","160.2483","16.2","214.65","63","60.03","30"
"08/06/12 18:09:28","160.2498","19.9","214.67","42","60.0","30"
"08/06/12 18:14:28","160.2524","37.3","214.26","143","60.0","31"
"08/06/12 18:19:27","160.2542","14.1","213.38","51","60.03","31"
"08/06/12 18:24:27","160.2555","13.7","214.01","0","60.0","31"
"08/06/12 18:29:28","160.2566","22.0","214.23","13","60.0","31"
"08/06/12 18:34:28","160.2578","16.1","214.1","1","60.07","31"
"08/06/12 18:39:28","160.2586","7.0","214.71","227","60.0","31"
"08/06/12 18:49:27","160.2589","0.0","213.93","0","60.03","29"
"08/07/12 06:44:31","160.2594","0.0","214.98","221","60.03","19"
"08/07/12 06:49:32","160.26","14.3","214.4","29","60.03","19"
"08/07/12 06:54:32","160.261","10.8","213.85","5","60.03","19"
"08/07/12 06:59:30","160.2621","23.2","212.41","256","60.0","20"
"08/07/12 07:04:32","160.2635","20.6","213.3","48","60.03","20"
"08/07/12 07:09:30","160.265","20.8","215.04","234","60.03","20"
"08/07/12 07:14:30","160.2669","26.3","214.6","32","60.03","21"
"08/07/12 07:19:30","160.2691","32.5","215.21","257","60.07","21"
"08/07/12 07:24:31","160.2715","28.2","214.7","156","60.03","22"
"08/07/12 07:29:31","160.2741","31.8","215.46","146","60.03","22"
"08/07/12 07:34:31","160.2771","45.5","215.07","344","60.03","23"
"08/07/12 07:39:32","160.2803","37.2","214.89","113","60.03","23"
"08/07/12 07:44:30","160.2838","39.8","215.4","178","60.03","24"
"08/07/12 07:49:32","160.2875","46.7","214.0","265","60.03","24"
"08/07/12 07:54:30","160.2916","43.9","214.92","308","60.07","25"
"08/07/12 07:59:31","160.2955","59.5","215.81","157","60.03","25"
"08/07/12 08:04:31","160.2998","62.3","214.54","324","60.03","26"
"08/07/12 08:09:31","160.3048","66.3","214.85","336","60.03","26"
"08/07/12 08:14:31","160.3101","70.2","215.52","351","60.0","27"
"08/07/12 08:19:32","160.3156","73.6","214.58","364","60.0","27"
"08/07/12 08:24:30","160.3215","77.1","216.5","383","60.03","27"
"08/07/12 08:29:31","160.3276","80.9","216.58","397","60.0","28"
"08/07/12 08:34:30","160.3337","81.1","216.69","398","60.03","28"
"08/07/12 08:39:31","160.3404","87.5","216.7","423","60.0","28"
"08/07/12 08:44:32","160.3473","90.2","216.68","437","60.03","29"
"08/07/12 08:49:32","160.3545","93.4","216.06","451","60.0","29"
"08/07/12 08:54:31","160.3619","96.4","217.48","465","60.03","29"
"08/07/12 08:59:30","160.3694","99.1","216.08","475","60.03","30"
"08/07/12 09:04:30","160.3772","101.6","214.4","490","60.0","30"
"08/07/12 09:09:32","160.3853","105.5","215.66","499","60.0","31"
"08/07/12 09:14:31","160.3936","107.9","216.57","516","60.03","31"
"08/07/12 09:19:32","160.4021","110.5","216.58","522","60.0","31"
"08/07/12 09:24:30","160.4108","112.8","217.24","536","60.0","32"
"08/07/12 09:29:31","160.4196","114.9","216.02","547","60.03","32"
"08/07/12 09:34:30","160.4287","117.4","216.58","555","60.03","32"
"08/07/12 09:39:31","160.4379","119.9","216.48","566","60.03","32"
"08/07/12 09:44:31","160.4474","122.6","216.57","577","60.0","33"
"08/07/12 09:49:31","160.457","124.4","217.52","580","60.03","33"
"08/07/12 09:54:31","160.4668","127.0","218.34","591","60.03","33"
"08/07/12 09:59:32","160.4767","129.0","217.97","601","60.03","34"
"08/07/12 10:04:31","160.4868","130.5","217.2","610","60.03","34"
"08/07/12 10:09:31","160.497","132.7","217.82","617","60.03","35"
"08/07/12 10:14:30","160.5074","135.1","218.51","622","60.0","35"
"08/07/12 10:19:30","160.518","136.2","217.29","634","60.0","35"
"08/07/12 10:24:31","160.5287","138.5","218.34","641","60.0","36"
"08/07/12 10:29:32","160.5396","141.1","216.48","657","60.0","36"
"08/07/12 10:34:30","160.5506","141.7","216.58","656","59.96","36"
"08/07/12 10:39:30","160.5616","142.1","216.12","664","60.03","37"
"08/07/12 10:44:30","160.5728","145.1","216.95","673","60.0","37"
"08/07/12 10:49:31","160.5841","145.6","216.9","676","60.03","38"
"08/07/12 10:54:31","160.5956","148.0","217.56","683","60.03","38"
"08/07/12 10:59:31","160.6072","148.7","217.74","688","60.03","38"
"08/07/12 11:04:32","160.6189","151.8","217.55","703","60.0","38"
"08/07/12 11:09:32","160.6307","152.0","220.75","691","60.0","38"
"08/07/12 11:14:32","160.6427","154.0","218.05","710","60.0","38"
"08/07/12 11:19:30","160.6547","154.5","218.14","714","60.03","38"
"08/07/12 11:24:31","160.6668","156.7","214.58","730","60.03","38"
"08/07/12 11:29:31","160.679","157.1","216.79","726","60.0","38"
"08/07/12 11:34:32","160.6912","156.8","216.79","729","60.0","38"
"08/07/12 11:39:30","160.7035","157.3","218.55","718","60.0","38"
"08/07/12 11:44:31","160.7158","157.4","217.21","725","60.03","38"
"08/07/12 11:49:34","160.7282","158.4","218.31","724","60.03","39"
"08/07/12 11:54:30","160.7404","159.1","218.88","730","60.03","39"
"08/07/12 11:59:31","160.7528","160.1","218.68","732","60.03","39"
"08/07/12 12:04:31","160.7653","160.9","218.32","736","60.0","40"
"08/07/12 12:09:32","160.7777","159.8","218.08","733","60.0","40"
"08/07/12 12:14:32","160.7902","159.7","218.02","733","60.0","41"
"08/07/12 12:19:30","160.8026","161.5","218.01","739","60.0","41"
"08/07/12 12:24:31","160.8153","162.5","217.46","747","60.03","41"
"08/07/12 12:29:31","160.828","164.1","217.61","750","60.0","40"
"08/07/12 12:34:31","160.8409","164.1","217.9","747","60.03","40"
"08/07/12 12:39:30","160.8536","164.6","218.29","746","60.0","40"
"08/07/12 12:44:30","160.8664","162.4","216.92","747","60.0","40"
"08/07/12 12:49:31","160.879","161.4","217.99","737","60.0","40"
"08/07/12 12:54:31","160.8916","161.6","217.65","738","60.0","41"
"08/07/12 12:59:31","160.9041","161.3","218.68","737","60.03","41"
"08/07/12 13:04:31","160.9167","160.1","218.59","731","60.0","41"
"08/07/12 13:09:31","160.9292","160.9","218.43","733","60.03","41"
"08/07/12 13:14:32","160.9418","160.7","218.45","736","60.0","41"
"08/07/12 13:19:31","160.9543","160.0","218.38","732","60.03","41"
"08/07/12 13:24:32","160.9667","158.7","217.87","728","60.03","41"
"08/07/12 13:29:31","160.979","157.3","218.24","718","60.03","41"
"08/07/12 13:34:32","160.9913","157.1","219.11","715","60.03","42"
"08/07/12 13:39:30","161.0033","155.2","218.98","713","60.03","42"
"08/07/12 13:44:32","161.0154","155.0","218.37","708","60.0","42"
"08/07/12 13:49:31","161.0274","153.7","218.36","701","60.0","42"
"08/07/12 13:54:31","161.0394","152.7","218.02","702","60.03","43"
"08/07/12 13:59:30","161.0512","151.6","217.74","700","60.03","43"
"08/07/12 14:04:30","161.0631","153.2","218.15","703","60.0","42"
"08/07/12 14:09:32","161.0749","150.8","217.61","695","60.0","42"
"08/07/12 14:14:31","161.0866","148.6","217.31","684","60.03","42"
"08/07/12 14:19:31","161.0982","149.6","216.89","692","60.0","41"
"08/07/12 14:24:32","161.1097","145.1","216.74","674","60.03","42"
"08/07/12 14:29:31","161.1209","144.1","217.66","672","60.0","42"
"08/07/12 14:34:31","161.1322","144.0","218.05","665","60.03","41"
"08/07/12 14:39:31","161.1433","142.4","217.68","658","60.03","41"
"08/07/12 14:44:31","161.1543","140.2","217.59","650","60.0","41"
"08/07/12 14:49:31","161.1651","138.0","217.83","637","60.0","42"
"08/07/12 14:54:32","161.1758","136.6","217.1","631","60.0","42"
"08/07/12 14:59:32","161.1864","136.2","217.38","631","60.03","41"
"08/07/12 15:04:32","161.197","134.9","217.16","630","60.03","40"
"08/07/12 15:09:31","161.2073","131.5","216.66","618","60.0","40"
"08/07/12 15:14:32","161.2174","128.3","216.32","602","60.0","40"
"08/07/12 15:19:31","161.2274","127.6","216.66","602","60.0","39"
"08/07/12 15:24:30","161.2373","126.7","217.13","595","60.0","39"
"08/07/12 15:29:32","161.2472","124.7","217.07","583","60.03","38"
"08/07/12 15:34:30","161.2567","122.2","216.8","574","60.03","38"
"08/07/12 15:39:30","161.2661","119.1","217.21","563","60.0","37"
"08/07/12 15:44:31","161.2753","115.1","216.83","543","60.03","38"
"08/07/12 15:49:30","161.284","111.8","216.23","530","60.03","38"
"08/07/12 15:54:32","161.2927","109.7","215.9","523","60.03","38"
"08/07/12 15:59:32","161.3012","107.0","216.16","512","60.03","38"
"08/07/12 16:04:31","161.3095","105.4","216.66","501","60.03","38"
"08/07/12 16:09:32","161.3176","102.4","215.73","489","60.0","38"
"08/07/12 16:14:31","161.3254","99.0","216.74","476","60.0","38"
"08/07/12 16:19:32","161.333","96.2","216.56","466","60.0","38"
"08/07/12 16:24:31","161.3403","93.0","215.92","453","60.03","38"
"08/07/12 16:29:32","161.3475","90.6","216.25","442","60.03","37"
"08/07/12 16:34:31","161.3544","87.9","215.36","428","60.03","37"
"08/07/12 16:39:30","161.3611","84.9","215.12","418","60.0","36"
"08/07/12 16:44:30","161.3676","81.6","215.33","403","60.03","36"
"08/07/12 16:49:30","161.3738","77.7","215.23","388","60.03","35"
"08/07/12 16:54:30","161.3797","74.8","216.18","368","60.03","35"
"08/07/12 16:59:31","161.3854","70.7","215.78","351","60.03","35"
"08/07/12 17:04:31","161.3907","66.4","215.17","338","60.03","35"
"08/07/12 17:09:31","161.3957","63.1","215.78","324","60.03","35"
"08/07/12 17:14:32","161.4004","71.9","216.03","405","60.03","34"
"08/07/12 17:19:31","161.4046","47.0","215.94","73","60.03","34"
"08/07/12 17:24:31","161.4088","41.1","214.17","95","60.0","34"
"08/07/12 17:29:32","161.4128","42.6","215.1","254","60.0","33"
"08/07/12 17:34:31","161.4164","52.0","215.28","106","60.0","33"
"08/07/12 17:39:31","161.4198","47.7","214.46","146","60.03","32"
"08/07/12 17:44:31","161.4229","43.1","214.96","192","60.0","32"
"08/07/12 17:49:30","161.4256","29.3","214.94","212","60.07","32"
"08/07/12 17:54:31","161.4281","26.9","214.36","149","60.03","32"
"08/07/12 17:59:31","161.4303","23.0","214.74","313","60.0","32"
"08/07/12 18:04:30","161.4323","24.1","214.36","233","60.0","32"
"08/07/12 18:09:31","161.434","28.7","214.46","37","60.0","32"
"08/07/12 18:14:30","161.4355","21.6","214.83","49","60.0","32"
"08/07/12 18:19:31","161.4368","15.0","214.3","88","60.03","32"
"08/07/12 18:24:31","161.4379","16.1","215.0","73","60.03","32"
"08/07/12 18:29:31","161.4387","12.1","214.83","196","60.03","31"
"08/07/12 18:34:32","161.4395","0.0","214.49","158","60.03","31"
"08/07/12 18:39:31","161.44","15.1","214.7","17","60.03","31"
"08/07/12 18:44:31","161.4406","0.0","214.21","93","60.0","30"
"08/07/12 18:49:32","161.4411","13.8","213.95","0","60.0","30"
"08/07/12 18:54:31","161.4416","11.1","214.03","29","60.03","30"
"08/07/12 18:59:32","161.4421","0.0","213.65","196","60.03","29"
"08/07/12 19:04:31","161.4428","15.2","213.58","4","60.03","28"
"08/07/12 19:09:34","161.4436","5.8","213.31","250","60.0","28"
"08/07/12 19:14:30","161.4442","14.3","213.17","34","60.0","27"
"08/07/12 19:19:31","161.4445","0.0","214.47","130","60.0","27"
"08/07/12 19:24:31","161.4449","10.6","213.29","42","60.0","26"
"08/08/12 06:44:36","161.4458","0.0","213.55","0","60.03","17"
"08/08/12 06:49:35","161.4461","0.0","214.01","248","60.03","18"
"08/08/12 06:54:35","161.4466","0.0","212.91","0","60.0","18"
"08/08/12 06:59:35","161.4471","13.8","214.81","0","60.03","18"
"08/08/12 07:04:35","161.4477","6.5","214.01","239","60.03","18"
"08/08/12 07:09:35","161.4483","10.8","215.23","25","60.07","18"
"08/08/12 07:14:35","161.4492","16.3","214.79","18","60.0","18"
"08/08/12 07:19:36","161.45","0.0","215.56","0","60.03","19"
"08/08/12 07:24:34","161.4508","15.1","214.19","0","60.03","19"
"08/08/12 07:29:35","161.4521","22.8","214.63","52","60.0","19"
"08/08/12 07:34:35","161.4549","49.6","215.19","322","60.0","19"
"08/08/12 07:39:35","161.4582","45.5","213.79","340","60.03","20"
"08/08/12 07:44:35","161.4613","33.3","213.76","338","60.03","20"
"08/08/12 07:49:35","161.4637","24.1","213.06","187","60.0","21"
"08/08/12 07:54:35","161.4658","25.0","213.67","199","60.07","21"
"08/08/12 07:59:35","161.4677","27.6","213.19","99","60.03","22"
"08/08/12 08:04:36","161.469","19.6","213.74","76","60.03","22"
"08/08/12 08:09:36","161.47","0.0","213.6","134","60.03","22"
"08/08/12 08:14:34","161.4708","11.3","213.17","3","60.03","22"
"08/08/12 08:19:35","161.4717","13.7","213.58","4","60.0","22"
"08/08/12 08:24:35","161.473","20.8","214.12","58","60.0","22"
"08/08/12 08:29:35","161.4743","23.9","213.58","20","60.07","22"
"08/08/12 08:34:35","161.4767","36.8","213.17","162","60.03","22"
"08/08/12 08:39:35","161.4789","26.4","213.96","294","60.0","22"
"08/08/12 08:44:35","161.4809","12.0","212.77","1","60.0","23"
"08/08/12 08:49:34","161.4819","0.0","214.28","140","60.03","23"
"08/08/12 08:54:34","161.483","12.4","213.38","5","60.03","23"
"08/08/12 08:59:35","161.4837","0.0","214.06","0","60.0","23"
"08/08/12 09:04:35","161.4841","14.5","214.35","58","60.03","23"
"08/08/12 09:09:34","161.4851","15.4","213.38","14","60.03","23"
"08/08/12 09:14:39","161.4865","28.9","214.43","86","60.03","23"
"08/08/12 09:19:34","161.4885","27.2","214.04","109","60.0","23"
"08/08/12 09:24:34","161.4907","25.7","213.82","125","60.0","23"
"08/08/12 09:29:35","161.4931","33.0","214.48","257","60.0","23"
"08/08/12 09:34:35","161.4963","51.9","214.75","334","60.03","23"
"08/08/12 09:39:35","161.5007","97.5","215.85","472","60.0","24"
"08/08/12 09:44:36","161.51","70.3","214.89","400","60.0","25"
"08/08/12 09:49:35","161.5142","58.0","213.99","222","60.0","26"
"08/08/12 09:59:35","161.5214","44.9","213.47","284","60.03","26"
"08/08/12 10:04:34","161.5241","31.7","214.37","230","60.03","26"
"08/08/12 10:09:34","161.5287","98.7","214.47","477","60.0","27"
"08/08/12 10:14:34","161.5344","65.3","213.59","334","60.03","27"
"08/08/12 10:19:35","161.5391","66.0","215.0","332","60.03","27"
"08/08/12 10:24:35","161.5449","69.4","215.27","351","60.0","28"
"08/08/12 10:29:35","161.551","84.6","214.78","414","60.03","28"
"08/08/12 10:34:34","161.5559","48.9","214.01","370","59.96","28"
"08/08/12 10:39:35","161.5586","38.2","214.88","220","60.03","28"
"08/08/12 10:44:36","161.5614","34.9","213.73","184","60.03","28"
"08/08/12 10:49:36","161.5633","19.1","213.17","126","60.03","27"
"08/08/12 10:54:34","161.5651","28.3","213.9","218","60.03","27"
"08/08/12 10:59:35","161.5665","15.4","213.64","14","60.03","27"
"08/08/12 11:04:35","161.5678","12.4","215.6","4","60.03","27"
"08/08/12 11:09:34","161.5691","13.6","214.18","20","60.03","26"
"08/08/12 11:14:35","161.5709","33.1","214.28","161","60.03","26"
"08/08/12 11:19:35","161.5736","49.6","215.19","220","60.0","26"
"08/08/12 11:24:34","161.5776","62.5","215.16","312","60.03","26"
"08/08/12 11:29:35","161.581","34.1","214.31","97","60.03","26"
"08/08/12 11:34:35","161.5842","37.2","214.58","108","60.0","26"
"08/08/12 11:39:35","161.5873","47.0","213.7","216","60.03","26"
"08/08/12 11:44:35","161.5901","30.9","213.05","206","60.03","26"
"08/08/12 11:49:36","161.5923","33.7","214.36","232","60.03","26"
"08/08/12 11:54:34","161.5951","37.6","213.79","123","60.03","26"
"08/08/12 11:59:34","161.5984","47.5","214.27","293","60.03","26"
"08/08/12 12:04:34","161.602","38.4","214.54","248","60.03","26"
"08/08/12 12:09:34","161.6056","49.0","214.72","302","60.0","26"
"08/08/12 12:14:35","161.6097","62.3","215.11","319","60.03","26"
"08/08/12 12:19:34","161.6153","79.2","216.08","391","60.03","26"
"08/08/12 12:24:35","161.6205","52.0","215.07","374","60.0","27"
"08/08/12 12:29:35","161.6247","56.9","214.89","114","60.03","27"
"08/08/12 12:34:35","161.63","77.7","215.7","384","60.03","27"
"08/08/12 12:39:34","161.6371","100.0","214.56","479","60.03","28"
"08/08/12 12:44:34","161.6441","80.9","214.35","405","60.03","28"
"08/08/12 12:49:34","161.6504","73.8","215.75","367","60.03","28"
"08/08/12 12:54:34","161.6559","75.4","214.77","377","60.03","28"
"08/08/12 12:59:35","161.6635","119.3","215.95","561","60.07","29"
"08/08/12 13:04:35","161.6743","138.6","216.83","644","60.03","30"
"08/08/12 13:09:35","161.6843","90.7","215.41","443","60.03","31"
"08/08/12 13:14:34","161.6928","98.9","216.31","474","60.0","32"
"08/08/12 13:19:35","161.6984","66.7","214.86","336","60.03","31"
"08/08/12 13:24:36","161.7029","41.5","214.82","349","60.03","30"
"08/08/12 13:29:36","161.7065","36.8","215.5","97","60.03","30"
"08/08/12 13:34:35","161.7095","37.9","215.53","158","60.03","29"
"08/08/12 13:39:35","161.7118","31.0","214.68","28","60.03","29"
"08/08/12 13:44:35","161.7137","22.6","215.05","157","60.03","28"
"08/08/12 13:49:36","161.7158","26.1","214.63","152","60.03","28"
"08/08/12 13:54:36","161.7182","27.0","214.12","152","60.03","27"
"08/08/12 13:59:34","161.7206","33.3","213.65","160","60.0","27"
"08/08/12 14:04:35","161.7232","42.7","214.83","288","60.03","27"
"08/08/12 14:09:35","161.7263","34.8","214.17","161","60.03","27"
"08/08/12 14:14:34","161.7293","32.3","214.02","90","60.03","26"
"08/08/12 14:19:35","161.7324","48.4","214.73","153","60.03","26"
"08/08/12 14:24:35","161.7355","34.4","214.95","309","60.03","26"
"08/08/12 14:29:35","161.7387","38.9","215.24","354","60.0","26"
"08/08/12 14:34:36","161.742","36.0","215.15","106","60.0","26"
"08/08/12 14:39:34","161.7451","45.9","214.55","136","60.03","26"
"08/08/12 14:44:35","161.7482","34.0","214.32","185","60.0","26"
"08/08/12 14:49:34","161.7513","38.8","214.42","122","60.03","26"
"08/08/12 14:54:34","161.7543","31.7","214.59","188","60.0","25"
"08/08/12 14:59:35","161.757","35.6","213.59","83","60.03","25"
"08/08/12 15:04:35","161.7598","34.1","213.95","314","60.03","25"
"08/08/12 15:09:34","161.7633","51.0","214.02","364","60.0","25"
"08/08/12 15:14:34","161.7672","48.3","214.44","160","60.03","25"
"08/08/12 15:19:35","161.7705","34.7","214.42","227","60.0","26"
"08/08/12 15:24:35","161.7736","43.0","214.26","300","60.0","26"